Weather History for KCAG - February, 2013

Change the Weather History Date:

Friday, February 15, 2013

  Actual Average Record
Temperature  
Mean Temperature 19 °F 20 °F  
Max Temperature 31 °F 34 °F 46 °F (2015)
Min Temperature 6 °F 7 °F -11 °F (2002)
Degree Days  
Heating Degree Days 46 45  
Month to date heating degree days 700 692  
Since 1 July heating degree days 5674 5776  
Cooling Degree Days 0 0  
Month to date cooling degree days 0 0  
Year to date cooling degree days 0 0  
Moisture  
Dew Point 14 °F    
Average Humidity 73    
Maximum Humidity 83    
Minimum Humidity 63    
Precipitation  
Precipitation T in 0.03 in 0.44 in (2000)
Month to date precipitation 0.14 0.45  
Year to date precipitation 0.85 1.33  
Sea Level Pressure  
Sea Level Pressure 30.50 in    
Wind  
Wind Speed 4 mph (West)    
Max Wind Speed 15 mph    
Max Gust Speed 16 mph    
Visibility 10 miles    
Events      
T = Trace of Precipitation, MM = Missing Value Source: NWS Daily Summary

Daily Weather History Graph

Daily Weather History Graph

Search for Another Location

Airport or City:

Trip Planner

Search our weather history database for the weather conditions in past years. The results will help you decide how hot, cold, wet, or windy it might be!

Date:

Astronomy

Feb. 15, 2013 Rise Set
Actual Time 7:03 AM MST 5:45 PM MST
Civil Twilight 6:35 AM MST 6:13 PM MST
Nautical Twilight 6:03 AM MST 6:45 PM MST
Astronomical Twilight 5:31 AM MST 7:17 PM MST
Moon 9:39 AM MST (2/15) 11:51 PM MST (2/15)
Length of Visible Light 11h 38m
Length of Day
10h 42m
Waxing Crescent, 31% of the Moon is Illuminated
Feb 15
Waxing Crescent
Feb 17
First Quarter
Feb 25
Full
Mar 4
Last Quarter
Mar 11
New

Hourly Weather History & Observations

Time (MST) Temp. Windchill Dew Point Humidity Pressure Visibility Wind Dir Wind Speed Gust Speed Precip Events Conditions
12:53 AM 25.0 °F 15.5 °F 15.1 °F 66% 30.38 in 10.0 mi West 9.2 mph - N/A   Overcast
1:53 AM 23.0 °F - 15.1 °F 72% 30.40 in 10.0 mi Calm Calm - N/A   Overcast
2:53 AM 21.9 °F 15.7 °F 14.0 °F 72% 30.40 in 10.0 mi WNW 4.6 mph - N/A   Overcast
3:53 AM 21.0 °F - 14.0 °F 74% 30.40 in 10.0 mi Calm Calm - N/A   Overcast
4:53 AM 21.0 °F 14.6 °F 14.0 °F 74% 30.42 in 10.0 mi NW 4.6 mph - N/A   Overcast
5:53 AM 19.9 °F 12.1 °F 12.9 °F 74% 30.47 in 10.0 mi WNW 5.8 mph - N/A   Overcast
6:53 AM 19.9 °F - 12.0 °F 71% 30.49 in 10.0 mi Calm Calm - N/A   Overcast
7:53 AM 21.0 °F 16.2 °F 12.9 °F 71% 30.51 in 10.0 mi ENE 3.5 mph - N/A   Overcast
8:53 AM 23.0 °F 18.4 °F 14.0 °F 68% 30.53 in 10.0 mi WSW 3.5 mph - N/A   Overcast
9:53 AM 24.1 °F 13.1 °F 15.1 °F 69% 30.52 in 10.0 mi SSW 11.5 mph - N/A   Overcast
10:53 AM 26.1 °F 16.8 °F 16.0 °F 66% 30.52 in 10.0 mi SW 9.2 mph - N/A   Partly Cloudy
11:08 AM 26.6 °F 16.8 °F 17.6 °F 69% 30.39 in 10.0 mi West 10.4 mph - 0.00 in   Mostly Cloudy
11:44 AM 28.4 °F 18.5 °F 17.6 °F 64% 30.39 in 10.0 mi West 11.5 mph - 0.00 in   Mostly Cloudy
11:53 AM 28.9 °F 18.2 °F 17.1 °F 61% 30.51 in 10.0 mi WNW 13.8 mph - 0.00 in   Mostly Cloudy
12:22 PM 28.4 °F 19.7 °F 17.6 °F 64% 30.39 in 10.0 mi West 9.2 mph - N/A   Mostly Cloudy
12:53 PM 28.0 °F 18.6 °F 18.0 °F 66% 30.51 in 10.0 mi West 10.4 mph - N/A   Overcast
1:53 PM 28.9 °F 21.1 °F 18.0 °F 64% 30.51 in 10.0 mi WSW 8.1 mph - N/A   Overcast
2:53 PM 28.9 °F 21.1 °F 17.1 °F 61% 30.50 in 10.0 mi WSW 8.1 mph - N/A   Clear
3:53 PM 27.0 °F 21.6 °F 17.1 °F 66% 30.52 in 10.0 mi WSW 4.6 mph - N/A   Mostly Cloudy
4:53 PM 28.9 °F 23.9 °F 17.1 °F 61% 30.51 in 10.0 mi SSW 4.6 mph - N/A   Mostly Cloudy
5:53 PM 21.0 °F - 12.0 °F 68% 30.55 in 10.0 mi Calm Calm - N/A   Clear
6:53 PM 19.0 °F - 10.9 °F 71% 30.56 in 10.0 mi Calm Calm - N/A   Clear
7:53 PM 15.1 °F - 9.0 °F 77% 30.59 in 10.0 mi Calm Calm - N/A   Clear
8:53 PM 12.9 °F - 6.1 °F 74% 30.59 in 10.0 mi Calm Calm - N/A   Clear
9:53 PM 9.0 °F - 5.0 °F 84% 30.61 in 10.0 mi Calm Calm - N/A   Clear
10:53 PM 9.0 °F - 5.0 °F 84% 30.60 in 10.0 mi Calm Calm - N/A   Clear
11:53 PM 10.0 °F - 6.1 °F 84% 30.58 in 10.0 mi Calm Calm - N/A   Clear